Surface/Precipitation History
11/26/2014 20:00  to  11/27/2014 20:00
Change End Date:
Date/Time
(MST)
Sf
Temp Chem Water Layer Surface Precipitation
Sf Sub Frz Factor Pct Depth IcePct Cond Salin Type Intens Accum Rate
11/27/2014 19:50 Ice Warning 28.9F - 32F 40 0% - 99% 0 mhos 42 None None - -
11/27/2014 19:49 Ice Warning 28.9F - 32F 40 0% - 99% 0 mhos 42 None None - -
11/27/2014 19:39 Ice Warning 29.3F - 32F 35 0% - 98% 0 mhos 44 Yes - - -
11/27/2014 19:35 Ice Warning 29.5F - 32F 35 0% - 98% 0 mhos 44 None None - -
11/27/2014 19:29 Ice Warning 29.5F - 32F 40 0% - 98% 0 mhos 44 Yes - - -
11/27/2014 19:20 Ice Warning 29.5F - 32F 30 0% - 98% 0 mhos 46 None None - -
11/27/2014 19:19 Ice Warning 29.5F - 32F 30 0% - 98% 0 mhos 46 Yes - - -
11/27/2014 19:09 Ice Warning 29.5F - 32F 30 0% - 98% 0 mhos 47 None None - -
11/27/2014 19:05 Ice Warning 29.5F - 32F 25 0% - 98% 0 mhos 47 None None - -
11/27/2014 18:59 Ice Warning 29.5F - 32F 25 0% - 98% 0 mhos 47 Yes - - -
11/27/2014 18:50 Ice Warning 29.3F - 32F 25 0% - 98% 0 mhos 47 Yes - - -
11/27/2014 18:49 Ice Warning 29.3F - 32F 25 0% - 98% 0 mhos 47 Yes - - -
11/27/2014 18:39 Ice Warning 28.8F - 32F 30 0% - 99% 0 mhos 45 Yes - - -
11/27/2014 18:35 Ice Warning 28.9F - 32F 25 0% - 99% 0 mhos 44 Yes - - -
11/27/2014 18:29 Ice Warning 28.9F - 32F 30 0% - 99% 0 mhos 42 Yes - - -
Date/Time
(MST)
Sf
Temp Chem Water Layer Surface Precipitation
Sf Sub Frz Factor Pct Depth IcePct Cond Salin Type Intens Accum Rate
11/27/2014 18:20 Ice Warning 28.6F - 32F 30 0% - 99% 0 mhos 39 None None - -
11/27/2014 18:19 Ice Warning 28.6F - 32F 30 0% - 99% 0 mhos 39 None None - -
11/27/2014 18:09 Ice Warning 28.4F - 32F 30 0% - 99% 0 mhos 38 None None - -
11/27/2014 18:05 Ice Warning 28.6F - 32F 35 0% - 99% 0 mhos 38 None None - -
11/27/2014 17:58 Ice Warning 28.9F - 32F 35 0% - 99% 0 mhos 39 None None - -
11/27/2014 17:50 Ice Warning 29.5F - 32F 35 0% - 98% 0 mhos 38 None None - -
11/27/2014 17:48 Ice Warning 29.5F - 32F 35 0% - 98% 0 mhos 38 None None - -
11/27/2014 17:38 Ice Warning 30.0F - 32F 35 0% - 98% 0 mhos 38 None None - -
11/27/2014 17:35 Ice Warning 30.2F - 32F 30 0% - 98% 0 mhos 37 None None - -
11/27/2014 17:28 Ice Warning 30.6F - 32F 35 0% - 97% 0 mhos 37 None None - -
11/27/2014 17:20 Ice Warning 30.9F - 32F 35 0% - 96% 0 mhos 36 None None - -
11/27/2014 17:18 Ice Warning 30.9F - 32F 40 0% - 96% 0 mhos 36 None None - -
11/27/2014 17:08 Chemically Wet 31.8F - 32F 40 0% - 84% 0 mhos 35 None None - -
11/27/2014 17:05 Chemically Wet 32.0F - 32F 45 0% - 53% 0 mhos 34 None None - -
11/27/2014 16:58 Wet 32.4F - 32F 50 0% 0.00 in 0% 0 mhos 33 None None - -
Date/Time
(MST)
Sf
Temp Chem Water Layer Surface Precipitation
Sf Sub Frz Factor Pct Depth IcePct Cond Salin Type Intens Accum Rate
11/27/2014 16:50 Wet 33.3F - 32F 50 0% 0.00 in 0% 0 mhos 32 None None - -
11/27/2014 16:48 Wet 33.6F - 32F 45 0% 0.00 in 0% 0 mhos 31 None None - -
11/27/2014 16:38 Wet 35.2F - 32F 70 0% 0.00 in 0% 0 mhos 29 None None - -
11/27/2014 16:35 Wet 35.2F - 32F 60 0% 0.00 in 0% 0 mhos 29 None None - -
11/27/2014 16:28 Wet 35.8F - 32F 70 0% 0.00 in 0% 0 mhos 27 None None - -
11/27/2014 16:20 Wet 36.5F - 32F 65 0% 0.00 in 0% 0 mhos 24 None None - -
11/27/2014 16:18 Wet 36.7F - 32F 65 0% 0.00 in 0% 0 mhos 24 None None - -
11/27/2014 16:08 Wet 37.8F - 32F 70 0% 0.00 in 0% 0 mhos 22 None None - -
11/27/2014 16:05 Wet 37.9F - 32F 65 0% 0.00 in 0% 0 mhos 21 None None - -
11/27/2014 15:58 Wet 38.5F - 32F 65 0% 0.00 in 0% 0 mhos 20 None None - -
11/27/2014 15:50 Wet 39.2F - 32F 70 0% 0.00 in 0% 0 mhos 18 None None - -
11/27/2014 15:48 Wet 39.4F - 32F 75 0% 0.00 in 0% 0 mhos 18 None None - -
11/27/2014 15:38 Wet 40.5F - 32F 75 0% 0.00 in 0% 0 mhos 15 None None - -
11/27/2014 15:35 Wet 41.0F - 32F 75 0% 0.10 in 0% 0 mhos 14 None None - -
11/27/2014 15:28 Wet 41.5F - 32F 65 0% 0.00 in 0% 0 mhos 13 None None - -
Date/Time
(MST)
Sf
Temp Chem Water Layer Surface Precipitation
Sf Sub Frz Factor Pct Depth IcePct Cond Salin Type Intens Accum Rate
11/27/2014 15:20 Wet 41.9F - 32F 55 0% 0.00 in 0% 0 mhos 14 None None - -
11/27/2014 15:18 Wet 41.9F - 32F 60 0% 0.00 in 0% 0 mhos 15 None None - -
11/27/2014 15:08 Wet 42.4F - 32F 80 0% 0.00 in 0% 0 mhos 16 None None - -
11/27/2014 15:05 Wet 42.6F - 32F 70 0% 0.00 in 0% 0 mhos 16 None None - -
11/27/2014 14:58 Wet 43.2F - 32F 80 0% 0.10 in 0% 0 mhos 16 None None - -
11/27/2014 14:50 Wet 43.7F - 32F 95 0% 0.10 in 0% 0 mhos 15 None None - -
11/27/2014 14:48 Wet 44.1F - 32F 95 0% 0.10 in 0% 0 mhos 13 None None - -
11/27/2014 14:37 Wet 45.0F - 32F 70 0% 0.10 in 0% 0 mhos 10 None None - -
11/27/2014 14:35 Wet 44.8F - 32F 70 0% 0.10 in 0% 0 mhos 10 None None - -
11/27/2014 14:27 Wet 45.1F - 32F 75 0% 0.10 in 0% 0 mhos 10 None None - -
11/27/2014 14:20 Wet 45.7F - 32F 85 0% 0.10 in 0% 0 mhos 7 None None - -
11/27/2014 14:17 Wet 45.7F - 32F 85 0% 0.20 in 0% 0 mhos 5 None None - -
11/27/2014 14:07 Wet 44.8F - 32F 10 0% 0.00 in 0% 0 mhos 4 None None - -
11/27/2014 14:05 Wet 44.8F - 32F 10 0% 0.00 in 0% 0 mhos 4 None None - -
11/27/2014 13:57 Wet 44.1F - 32F 20 0% 0.00 in 0% 0 mhos 6 None None - -
Date/Time
(MST)
Sf
Temp Chem Water Layer Surface Precipitation
Sf Sub Frz Factor Pct Depth IcePct Cond Salin Type Intens Accum Rate
11/27/2014 13:50 Wet 44.6F - 32F 40 0% 0.10 in 0% 0 mhos 6 None None - -
11/27/2014 13:47 Wet 44.2F - 32F 50 0% 0.10 in 0% 0 mhos 7 None None - -
11/27/2014 13:37 Wet 44.8F - 32F 5 0% 0.00 in 0% 0 mhos 5 None None - -
11/27/2014 13:35 Wet 44.4F - 32F 5 0% 0.00 in 0% 0 mhos 6 None None - -
11/27/2014 13:27 Wet 43.5F - 32F 5 0% 0.00 in 0% 0 mhos 10 None None - -
11/27/2014 13:20 Wet 43.2F - 32F 5 0% 0.00 in 0% 0 mhos 12 None None - -
11/27/2014 13:17 Wet 43.0F - 32F 10 0% 0.00 in 0% 0 mhos 14 None None - -
11/27/2014 13:07 Wet 42.3F - 32F 40 0% 0.00 in 0% 0 mhos 31 None None - -
11/27/2014 13:05 Wet 42.1F - 32F 35 0% 0.00 in 0% 0 mhos 42 None None - -
11/27/2014 12:57 Wet 41.5F - 32F 40 0% 0.00 in 0% 1 mhos 110 None None - -
11/27/2014 12:50 Wet 41.4F - 32F 65 1% 0.00 in 0% 2 mhos 177 None None - -
11/27/2014 12:47 Wet 41.2F - 32F 75 1% 0.00 in 0% 2 mhos 199 None None - -
11/27/2014 12:37 Wet 40.8F - 32F 60 1% 0.00 in 0% 2 mhos 198 None None - -
11/27/2014 12:35 Wet 40.8F - 32F 60 1% 0.00 in 0% 2 mhos 208 None None - -
11/27/2014 12:27 Wet 40.5F - 32F 65 1% 0.00 in 0% 2 mhos 197 None None - -
Date/Time
(MST)
Sf
Temp Chem Water Layer Surface Precipitation
Sf Sub Frz Factor Pct Depth IcePct Cond Salin Type Intens Accum Rate
11/27/2014 12:20 Wet 39.9F - 32F 70 1% 0.00 in 0% 2 mhos 239 None None - -
11/27/2014 12:17 Wet 39.7F - 32F 85 1% 0.00 in 0% 2 mhos 229 None None - -
11/27/2014 12:07 Wet 39.2F - 32F 90 1% 0.00 in 0% 2 mhos 226 None None - -
11/27/2014 12:05 Wet 39.2F - 32F 70 1% 0.00 in 0% 3 mhos 293 None None - -
11/27/2014 11:57 Wet 39.2F - 32F 70 1% 0.00 in 0% 3 mhos 302 None None - -
11/27/2014 11:50 Wet 38.8F - 32F 70 1% 0.00 in 0% 4 mhos 366 None None - -
11/27/2014 11:47 Wet 38.7F - 32F 65 1% 0.00 in 0% 4 mhos 369 None None - -
11/27/2014 11:36 Wet 37.8F - 32F 75 1% 0.00 in 0% 4 mhos 388 None None - -
11/27/2014 11:35 Wet 37.6F - 32F 75 1% 0.00 in 0% 4 mhos 388 None None - -
11/27/2014 11:26 Wet 36.5F - 32F 65 2% 0.00 in 0% 4 mhos 397 None None - -
11/27/2014 11:20 Wet 34.3F - 32F 90 1% 0.00 in 0% 4 mhos 388 None None - -
11/27/2014 11:16 Wet 34.5F - 31F 95 2% 0.00 in 0% 5 mhos 547 None None - -
11/27/2014 11:06 Wet 32.0F - 31F 95 2% 0.00 in 0% 5 mhos 520 None None - -
11/27/2014 11:05 Chemically Wet 32.0F - 31F 95 2% 0.00 in 0% 5 mhos 531 None None - -
11/27/2014 10:56 Chemically Wet 31.8F - 32F 95 1% - 11% 2 mhos 198 None None - -
Date/Time
(MST)
Sf
Temp Chem Water Layer Surface Precipitation
Sf Sub Frz Factor Pct Depth IcePct Cond Salin Type Intens Accum Rate
11/27/2014 10:50 Chemically Wet 31.8F - 32F 60 0% - 78% 0 mhos 49 None None - -
11/27/2014 10:46 Ice Warning 31.6F - 32F 90 0% - 91% 0 mhos 34 None None - -
11/27/2014 10:36 Ice Warning 31.6F - 32F 50 0% - 98% 0 mhos 7 None None - -
11/27/2014 10:35 Ice Warning 31.8F - 32F 70 0% - 97% 0 mhos 7 None None - -
11/27/2014 10:26 Ice Warning 31.6F - 32F 10 0% - 98% 0 mhos 6 None None - -
11/27/2014 10:20 Ice Warning 31.3F - 32F 10 0% - 99% 0 mhos 6 None None - -
11/27/2014 10:16 Ice Warning 31.1F - 32F 20 0% - 99% 0 mhos 5 None None - -
11/27/2014 10:06 Ice Warning 30.7F - 32F 5 0% - 100% 0 mhos 5 None None - -
11/27/2014 10:05 Ice Warning 30.7F - 32F 5 0% - 100% 0 mhos 4 None None - -
11/27/2014 09:56 Ice Warning 30.2F - 32F 5 0% - 100% 0 mhos 3 None None - -
11/27/2014 09:50 Ice Warning 29.7F - 32F 5 0% - 100% 0 mhos 3 None None - -
11/27/2014 09:46 Ice Warning 29.7F - 32F 5 0% - 100% 0 mhos 3 None None - -
11/27/2014 09:36 Ice Warning 28.8F - 32F 5 0% - 100% 0 mhos 2 None None - -
11/27/2014 09:35 Ice Warning 28.8F - 32F 5 0% - 100% 0 mhos 2 None None - -
11/27/2014 09:26 Ice Warning 28.2F - 32F 5 0% - 100% 0 mhos 2 None None - -
Date/Time
(MST)
Sf
Temp Chem Water Layer Surface Precipitation
Sf Sub Frz Factor Pct Depth IcePct Cond Salin Type Intens Accum Rate
11/27/2014 09:20 Ice Warning 27.9F - 32F 5 0% - 100% 0 mhos 2 None None - -
11/27/2014 09:16 Ice Warning 27.5F - 32F 5 0% - 100% 0 mhos 2 None None - -
11/27/2014 09:06 Ice Warning 27.3F - 32F 5 0% - 100% 0 mhos 2 None None - -
11/27/2014 09:05 Ice Warning 27.1F - 32F 5 0% - 100% 0 mhos 2 None None - -
11/27/2014 08:55 Ice Warning 27.0F - 32F 5 0% - 100% 0 mhos 2 None None - -
11/27/2014 08:50 Ice Warning 26.2F - 32F 5 0% - 100% 0 mhos 2 None None - -
11/27/2014 08:45 Ice Warning 25.9F - 32F 5 0% - 100% 0 mhos 2 None None - -
11/27/2014 08:35 Ice Warning 25.3F - 32F 5 0% - 100% 0 mhos 2 None None - -
11/27/2014 08:35 Ice Warning 25.3F - 32F 5 0% - 100% 0 mhos 2 None None - -
11/27/2014 08:25 Ice Warning 25.0F - 32F 5 0% - 100% 0 mhos 2 None None - -
11/27/2014 08:20 Ice Warning 24.8F - 32F 5 0% - 100% 0 mhos 2 None None - -
11/27/2014 08:15 Ice Warning 24.6F - 32F 5 0% - 100% 0 mhos 2 None None - -
11/27/2014 08:05 Ice Warning 25.0F - 32F 5 0% - 100% 0 mhos 2 None None - -
11/27/2014 08:05 Ice Warning 25.0F - 32F 5 0% - 100% 0 mhos 2 None None - -
11/27/2014 07:55 Ice Warning 25.2F - 32F 5 0% - 100% 0 mhos 2 None None - -
Date/Time
(MST)
Sf
Temp Chem Water Layer Surface Precipitation
Sf Sub Frz Factor Pct Depth IcePct Cond Salin Type Intens Accum Rate
11/27/2014 07:50 Ice Warning 25.5F - 32F 5 0% - 100% 0 mhos 2 None None - -
11/27/2014 07:45 Ice Warning 25.7F - 32F 5 0% - 100% 0 mhos 2 None None - -
11/27/2014 07:35 Ice Warning 26.2F - 32F 5 0% - 100% 0 mhos 2 None None - -
11/27/2014 07:35 Ice Warning 26.2F - 32F 5 0% - 100% 0 mhos 2 None None - -
11/27/2014 07:25 Ice Warning 26.6F - 32F 5 0% - 100% 0 mhos 2 None None - -
11/27/2014 07:20 Ice Warning 26.8F - 32F 5 0% - 100% 0 mhos 2 None None - -
11/27/2014 07:15 Ice Warning 27.0F - 32F 5 0% - 100% 0 mhos 2 None None - -
11/27/2014 07:05 Ice Warning 27.3F - 32F 5 0% - 100% 0 mhos 2 None None - -
11/27/2014 07:05 Ice Warning 27.3F - 32F 5 0% - 100% 0 mhos 2 None None - -
11/27/2014 06:55 Ice Warning 27.7F - 32F 5 0% - 100% 0 mhos 2 None None - -
11/27/2014 06:50 Ice Warning 28.0F - 32F 5 0% - 100% 0 mhos 2 None None - -
11/27/2014 06:45 Ice Warning 28.4F - 32F 5 0% - 100% 0 mhos 3 None None - -
11/27/2014 06:35 Ice Warning 28.8F - 32F 5 0% - 100% 0 mhos 3 None None - -
11/27/2014 06:35 Ice Warning 28.8F - 32F 5 0% - 100% 0 mhos 3 None None - -
11/27/2014 06:25 Ice Warning 29.5F - 32F 5 0% - 100% 0 mhos 3 None None - -
Date/Time
(MST)
Sf
Temp Chem Water Layer Surface Precipitation
Sf Sub Frz Factor Pct Depth IcePct Cond Salin Type Intens Accum Rate
11/27/2014 06:20 Ice Warning 29.7F - 32F 5 0% - 100% 0 mhos 3 None None - -
11/27/2014 06:15 Ice Warning 29.7F - 32F 5 0% - 100% 0 mhos 3 None None - -
11/27/2014 06:05 Ice Warning 29.7F - 32F 5 0% - 100% 0 mhos 3 None None - -
11/27/2014 06:04 Ice Warning 29.7F - 32F 5 0% - 100% 0 mhos 3 None None - -
11/27/2014 05:54 Ice Warning 29.7F - 32F 5 0% - 100% 0 mhos 3 None None - -
11/27/2014 05:50 Ice Warning 29.7F - 32F 5 0% - 100% 0 mhos 3 None None - -
11/27/2014 05:44 Ice Warning 29.7F - 32F 5 0% - 100% 0 mhos 3 None None - -
11/27/2014 05:35 Ice Warning 29.7F - 32F 5 0% - 100% 0 mhos 3 None None - -
11/27/2014 05:34 Ice Warning 29.7F - 32F 5 0% - 100% 0 mhos 3 None None - -
11/27/2014 05:24 Ice Warning 30.0F - 32F 5 0% - 100% 0 mhos 4 None None - -
11/27/2014 05:20 Ice Warning 30.0F - 32F 5 0% - 100% 0 mhos 4 None None - -
11/27/2014 05:14 Ice Warning 30.2F - 32F 5 0% - 100% 0 mhos 4 None None - -
11/27/2014 05:05 Ice Warning 30.7F - 32F 5 0% - 100% 0 mhos 5 Yes - - -
11/27/2014 05:04 Ice Warning 30.7F - 32F 5 0% - 100% 0 mhos 5 Yes - - -
11/27/2014 04:54 Ice Warning 30.9F - 32F 5 0% - 100% 0 mhos 5 Yes - - -
Date/Time
(MST)
Sf
Temp Chem Water Layer Surface Precipitation
Sf Sub Frz Factor Pct Depth IcePct Cond Salin Type Intens Accum Rate
11/27/2014 04:50 Ice Warning 30.9F - 32F 5 0% - 100% 0 mhos 5 Yes - - -
11/27/2014 04:44 Ice Warning 30.7F - 32F 5 0% - 100% 0 mhos 4 Yes - - -
11/27/2014 04:35 Ice Warning 28.8F - 32F 5 0% - 100% 0 mhos 2 Yes - - -
11/27/2014 04:34 Ice Warning 28.6F - 32F 5 0% - 100% 0 mhos 2 None None - -
11/27/2014 04:24 Ice Warning 28.6F - 32F 5 0% - 100% 0 mhos 2 Yes - - -
11/27/2014 04:20 Ice Warning 28.8F - 32F 5 0% - 100% 0 mhos 2 Yes - - -
11/27/2014 04:14 Ice Warning 28.4F - 32F 5 0% - 100% 0 mhos 2 Yes - - -
11/27/2014 04:05 Ice Warning 28.4F - 32F 5 0% - 100% 0 mhos 2 None None - -
11/27/2014 04:04 Ice Warning 28.4F - 32F 5 0% - 100% 0 mhos 2 None None - -
11/27/2014 03:54 Ice Warning 28.4F - 32F 5 0% - 100% 0 mhos 2 Yes - - -
11/27/2014 03:50 Ice Warning 28.4F - 32F 5 0% - 100% 0 mhos 2 None None - -
11/27/2014 03:44 Ice Warning 28.2F - 32F 5 0% - 100% 0 mhos 2 None None - -
11/27/2014 03:35 Ice Warning 28.2F - 32F 5 0% - 100% 0 mhos 2 None None - -
11/27/2014 03:34 Ice Warning 28.0F - 32F 5 0% - 100% 0 mhos 2 None None - -
11/27/2014 03:24 Ice Warning 27.9F - 32F 5 0% - 100% 0 mhos 2 None None - -
Date/Time
(MST)
Sf
Temp Chem Water Layer Surface Precipitation
Sf Sub Frz Factor Pct Depth IcePct Cond Salin Type Intens Accum Rate
11/27/2014 03:20 Ice Warning 27.9F - 32F 5 0% - 100% 0 mhos 2 None None - -
11/27/2014 03:14 Ice Warning 27.9F - 32F 5 0% - 100% 0 mhos 2 None None - -
11/27/2014 03:05 Ice Warning 27.9F - 32F 5 0% - 100% 0 mhos 2 None None - -
11/27/2014 03:04 Ice Warning 27.7F - 32F 5 0% - 100% 0 mhos 2 None None - -
11/27/2014 02:54 Ice Warning 28.0F - 32F 5 0% - 100% 0 mhos 2 None None - -
11/27/2014 02:50 Ice Warning 28.2F - 32F 5 0% - 100% 0 mhos 2 None None - -
11/27/2014 02:44 Ice Warning 28.2F - 32F 5 0% - 100% 0 mhos 2 None None - -
11/27/2014 02:35 Ice Warning 28.4F - 32F 5 0% - 100% 0 mhos 2 None None - -
11/27/2014 02:33 Ice Warning 28.4F - 32F 5 0% - 100% 0 mhos 2 None None - -
11/27/2014 02:23 Ice Warning 28.4F - 32F 5 0% - 100% 0 mhos 2 None None - -
11/27/2014 02:20 Ice Warning 28.4F - 32F 5 0% - 100% 0 mhos 2 None None - -
11/27/2014 02:13 Ice Warning 28.4F - 32F 5 0% - 100% 0 mhos 2 None None - -
11/27/2014 02:05 Ice Warning 28.2F - 32F 5 0% - 100% 0 mhos 2 None None - -
11/27/2014 02:03 Ice Warning 28.2F - 32F 5 0% - 100% 0 mhos 2 None None - -
11/27/2014 01:53 Ice Warning 28.2F - 32F 5 0% - 100% 0 mhos 2 None None - -
Date/Time
(MST)
Sf
Temp Chem Water Layer Surface Precipitation
Sf Sub Frz Factor Pct Depth IcePct Cond Salin Type Intens Accum Rate
11/27/2014 01:50 Ice Warning 28.2F - 32F 5 0% - 100% 0 mhos 2 None None - -
11/27/2014 01:43 Ice Warning 28.2F - 32F 5 0% - 100% 0 mhos 2 None None - -
11/27/2014 01:35 Ice Warning 28.2F - 32F 5 0% - 100% 0 mhos 2 None None - -
11/27/2014 01:33 Ice Warning 28.4F - 32F 5 0% - 100% 0 mhos 2 None None - -
11/27/2014 01:23 Ice Warning 28.2F - 32F 5 0% - 100% 0 mhos 2 Yes - - -
11/27/2014 01:20 Ice Warning 28.2F - 32F 5 0% - 100% 0 mhos 2 None None - -
11/27/2014 01:13 Ice Warning 28.2F - 32F 5 0% - 100% 0 mhos 2 None None - -
11/27/2014 01:05 Ice Warning 28.2F - 32F 5 0% - 100% 0 mhos 2 None None - -
11/27/2014 01:03 Ice Warning 28.2F - 32F 5 0% - 100% 0 mhos 2 None None - -
11/27/2014 00:53 Ice Warning 28.2F - 32F 5 0% - 100% 0 mhos 2 None None - -
11/27/2014 00:50 Ice Warning 28.0F - 32F 5 0% - 100% 0 mhos 2 None None - -
11/27/2014 00:43 Ice Warning 28.0F - 32F 5 0% - 100% 0 mhos 2 None None - -
11/27/2014 00:35 Ice Warning 27.9F - 32F 5 0% - 100% 0 mhos 2 None None - -
11/27/2014 00:33 Ice Warning 28.0F - 32F 5 0% - 100% 0 mhos 2 None None - -
11/27/2014 00:23 Ice Warning 28.0F - 32F 5 0% - 100% 0 mhos 2 None None - -
Date/Time
(MST)
Sf
Temp Chem Water Layer Surface Precipitation
Sf Sub Frz Factor Pct Depth IcePct Cond Salin Type Intens Accum Rate
11/27/2014 00:20 Ice Warning 28.0F - 32F 5 0% - 100% 0 mhos 2 None None - -
11/27/2014 00:13 Ice Warning 28.0F - 32F 5 0% - 100% 0 mhos 2 None None - -
11/27/2014 00:06 Ice Warning 28.0F - 32F 5 0% - 100% 0 mhos 2 None None - -
11/27/2014 00:03 Ice Warning 28.0F - 32F 5 0% - 100% 0 mhos 2 None None - -
11/26/2014 23:53 Ice Warning 28.0F - 32F 5 0% - 100% 0 mhos 2 None None - -
11/26/2014 23:51 Ice Warning 28.2F - 32F 5 0% - 100% 0 mhos 2 - - - -
11/26/2014 23:43 Ice Warning 28.0F - 32F 5 0% - 100% 0 mhos 2 None None - -
11/26/2014 23:35 Ice Warning 28.0F - 32F 5 0% - 100% 0 mhos 2 None None - -
11/26/2014 23:33 Ice Warning 28.0F - 32F 5 0% - 100% 0 mhos 2 None None - -
11/26/2014 23:22 Ice Warning 27.9F - 32F 5 0% - 100% 0 mhos 2 None None - -
11/26/2014 23:12 Ice Warning 27.9F - 32F 5 0% - 100% 0 mhos 2 None None - -
11/26/2014 23:05 Ice Warning 27.9F - 32F 5 0% - 100% 0 mhos 2 None None - -
11/26/2014 23:02 Ice Warning 27.9F - 32F 5 0% - 100% 0 mhos 2 None None - -
11/26/2014 22:52 Ice Warning 28.0F - 32F 5 0% - 100% 0 mhos 2 None None - -
11/26/2014 22:50 Ice Warning 28.0F - 32F 5 0% - 100% 0 mhos 2 None None - -
Date/Time
(MST)
Sf
Temp Chem Water Layer Surface Precipitation
Sf Sub Frz Factor Pct Depth IcePct Cond Salin Type Intens Accum Rate
11/26/2014 22:42 Ice Warning 28.0F - 32F 5 0% - 100% 0 mhos 2 None None - -
11/26/2014 22:35 Ice Warning 28.4F - 32F 5 0% - 100% 0 mhos 2 None None - -
11/26/2014 22:32 Ice Warning 28.4F - 32F 5 0% - 100% 0 mhos 2 None None - -
11/26/2014 22:22 Ice Warning 28.4F - 32F 5 0% - 100% 0 mhos 2 None None - -
11/26/2014 22:20 Ice Warning 28.4F - 32F 5 0% - 100% 0 mhos 2 None None - -
11/26/2014 22:12 Ice Warning 28.4F - 32F 5 0% - 100% 0 mhos 2 None None - -
11/26/2014 22:05 Ice Warning 28.4F - 32F 5 0% - 100% 0 mhos 2 Yes - - -
11/26/2014 22:02 Ice Warning 28.4F - 32F 5 0% - 100% 0 mhos 2 Yes - - -
11/26/2014 21:52 Ice Warning 28.4F - 32F 5 0% - 100% 0 mhos 2 None None - -
11/26/2014 21:50 Ice Warning 28.4F - 32F 5 0% - 100% 0 mhos 2 None None - -
11/26/2014 21:42 Ice Warning 28.4F - 32F 5 0% - 100% 0 mhos 2 None None - -
11/26/2014 21:35 Ice Warning 28.4F - 32F 5 0% - 100% 0 mhos 2 None None - -
11/26/2014 21:32 Ice Warning 28.4F - 32F 5 0% - 100% 0 mhos 2 None None - -
11/26/2014 21:22 Ice Warning 28.4F - 32F 5 0% - 100% 0 mhos 2 None None - -
11/26/2014 21:20 Ice Warning 28.4F - 32F 5 0% - 100% 0 mhos 2 None None - -
Date/Time
(MST)
Sf
Temp Chem Water Layer Surface Precipitation
Sf Sub Frz Factor Pct Depth IcePct Cond Salin Type Intens Accum Rate
11/26/2014 21:12 Ice Warning 28.6F - 32F 5 0% - 100% 0 mhos 2 None None - -
11/26/2014 21:05 Ice Warning 28.4F - 32F 5 0% - 100% 0 mhos 2 None None - -
11/26/2014 21:02 Ice Warning 28.4F - 32F 5 0% - 100% 0 mhos 2 None None - -
11/26/2014 20:52 Ice Warning 28.6F - 32F 5 0% - 100% 0 mhos 2 Yes - - -
11/26/2014 20:50 Ice Warning 28.6F - 32F 5 0% - 100% 0 mhos 2 Yes - - -
11/26/2014 20:42 Ice Warning 28.6F - 32F 5 0% - 100% 0 mhos 2 Yes - - -
11/26/2014 20:35 Ice Warning 28.6F - 32F 5 0% - 100% 0 mhos 2 None None - -
11/26/2014 20:31 Ice Warning 28.6F - 32F 5 0% - 100% 0 mhos 2 None None - -
11/26/2014 20:21 Ice Warning 28.6F - 32F 5 0% - 100% 0 mhos 2 None None - -
11/26/2014 20:20 Ice Warning 28.6F - 32F 5 0% - 100% 0 mhos 2 Yes - - -
11/26/2014 20:11 Ice Warning 28.6F - 32F 5 0% - 100% 0 mhos 2 Yes - - -
11/26/2014 20:05 Ice Warning 28.6F - 32F 5 0% - 100% 0 mhos 2 Yes - - -
11/26/2014 20:01 Ice Warning 28.6F - 32F 5 0% - 100% 0 mhos 2 None None - -
Change End Date:
Copyright © 1998-2005 Surface Systems, Inc.
All Rights Reserved
Send comments about the data to:
SCAN Web ® is a registered trademark of Surface Systems, Inc.
SCAN Web Version 5.6